| time (UTC) | temp F | wind direction | speed MPH | gust MPH | rain 1hr in | rain 24hr in | rain mn in | humidity % | barometer mb |
| 20260906210001 | 69 | 328 | 2.0 | 4.0 | 0.00 | 0.00 | 0.00 | 70 | 1020.7 |
| 20260906204457 | 69 | 106 | 3.0 | 8.0 | 0.00 | 0.00 | 0.00 | 70 | 1020.6 |
| 20260906201458 | 69 | 155 | 2.0 | 5.0 | 0.00 | 0.00 | 0.00 | 71 | 1020.6 |
| 20260906195959 | 69 | 360 | 3.0 | 10.0 | 0.00 | 0.00 | 0.00 | 72 | 1020.5 |
| 20260906194456 | 69 | 74 | 3.0 | 9.0 | 0.00 | 0.00 | 0.00 | 71 | 1020.7 |
| 20260906192956 | 69 | 138 | 3.0 | 8.0 | 0.00 | 0.00 | 0.00 | 71 | 1020.7 |
| 20260906191456 | 69 | 54 | 3.0 | 8.0 | 0.00 | 0.00 | 0.00 | 74 | 1020.5 |
| 20260906190001 | 69 | 340 | 3.0 | 9.0 | 0.00 | 0.00 | 0.00 | 75 | 1020.6 |
| 20260906184456 | 69 | 94 | 3.0 | 11.0 | 0.00 | 0.00 | 0.00 | 74 | 1020.5 |
| 20260906182957 | 69 | 42 | 4.0 | 10.0 | 0.00 | 0.00 | 0.00 | 74 | 1020.5 |
| 20260906175959 | 70 | 119 | 2.0 | 8.0 | 0.00 | 0.00 | 0.00 | 73 | 1020.6 |
| 20260906174456 | 70 | 22 | 3.0 | 9.0 | 0.00 | 0.00 | 0.00 | 74 | 1020.5 |
| 20260906172957 | 69 | 91 | 4.0 | 11.0 | 0.00 | 0.00 | 0.00 | 75 | 1020.5 |
| 20260906171456 | 68 | 320 | 2.0 | 9.0 | 0.00 | 0.00 | 0.00 | 77 | 1020.6 |
| 20260906170000 | 69 | 5 | 2.0 | 8.0 | 0.00 | 0.00 | 0.00 | 78 | 1020.7 |
| 20260906164456 | 69 | 339 | 2.0 | 6.0 | 0.00 | 0.00 | 0.00 | 79 | 1020.6 |
| 20260906163313 | 69 | 90 | 3.0 | 10.0 | 0.00 | 0.00 | 0.00 | 75 | 1020.5 |
| 20260906161455 | 69 | 328 | 3.0 | 8.0 | 0.00 | 0.00 | 0.00 | 78 | 1020.6 |
| 20260906160026 | 69 | 103 | 3.0 | 5.0 | 0.00 | 0.00 | 0.00 | 77 | 1020.6 |
| 20260906154611 | 69 | 355 | 2.0 | 5.0 | 0.00 | 0.00 | 0.00 | 77 | 1020.6 |
| 20260906152956 | 69 | 329 | 2.0 | 6.0 | 0.00 | 0.00 | 0.00 | 81 | 1020.5 |
| 20260906151456 | 69 | 33 | 5.0 | 11.0 | 0.00 | 0.00 | 0.00 | 80 | 1020.3 |
| 20260906150000 | 69 | 212 | 2.0 | 8.0 | 0.00 | 0.00 | 0.00 | 79 | 1020.4 |
| 20260906132956 | 66 | 289 | 3.0 | 11.0 | 0.00 | 0.00 | 0.00 | 91 | 1019.8 |
| 20260906131457 | 66 | 96 | 2.0 | 9.0 | 0.00 | 0.00 | 0.00 | 95 | 1019.7 |
| 20260906125959 | 65 | 69 | 2.0 | 7.0 | 0.00 | 0.00 | 0.00 | 98 | 1019.5 |
| 20260906124456 | 65 | 63 | 1.0 | 3.0 | 0.00 | 0.00 | 0.00 | 98 | 1019.6 |
| 20260906122956 | 64 | 297 | 0.0 | 2.0 | 0.00 | 0.00 | 0.00 | 99 | 1019.3 |
| 20260906121456 | 63 | 297 | 0.0 | 3.0 | 0.00 | 0.00 | 0.00 | 99 | 1019.4 |
| 20260906115958 | 61 | 178 | 0.0 | 0.0 | 0.00 | 0.00 | 0.00 | 99 | 1019.3 |
| 20260906114456 | 59 | 178 | 0.0 | 0.0 | 0.00 | 0.00 | 0.00 | 99 | 1019.0 |
| 20260906112956 | 58 | 178 | 0.0 | 0.0 | 0.00 | 0.00 | 0.00 | 99 | 1018.9 |
| 20260906111456 | 57 | 178 | 0.0 | 0.0 | 0.00 | 0.00 | 0.00 | 98 | 1018.9 |
| 20260906105959 | 57 | 178 | 0.0 | 0.0 | 0.00 | 0.00 | 0.00 | 99 | 1018.7 |
| 20260906104456 | 57 | 178 | 0.0 | 0.0 | 0.00 | 0.00 | 0.00 | 98 | 1018.5 |
| 20260906101455 | 57 | 178 | 0.0 | 0.0 | 0.00 | 0.00 | 0.00 | 98 | 1018.2 |
| 20260906095959 | 57 | 178 | 0.0 | 0.0 | 0.00 | 0.00 | 0.00 | 98 | 1018.1 |
| 20260906094456 | 58 | 178 | 0.0 | 0.0 | 0.00 | 0.00 | 0.00 | 98 | 1018.0 |
| 20260906092955 | 58 | 178 | 0.0 | 0.0 | 0.00 | 0.00 | 0.00 | 98 | 1017.7 |
| 20260906091456 | 58 | 178 | 0.0 | 0.0 | 0.00 | 0.00 | 0.00 | 98 | 1017.8 |
| 20260906085958 | 58 | 178 | 0.0 | 0.0 | 0.00 | 0.00 | 0.00 | 98 | 1017.5 |
| 20260906084455 | 58 | 178 | 0.0 | 0.0 | 0.00 | 0.00 | 0.00 | 98 | 1017.2 |
| 20260906082956 | 58 | 178 | 0.0 | 0.0 | 0.00 | 0.00 | 0.00 | 98 | 1017.0 |
| 20260906081455 | 59 | 178 | 0.0 | 0.0 | 0.00 | 0.00 | 0.00 | 98 | 1017.0 |
| 20260906075959 | 59 | 178 | 0.0 | 0.0 | 0.00 | 0.00 | 0.00 | 98 | 1017.0 |
| 20260906074455 | 59 | 178 | 0.0 | 0.0 | 0.00 | 0.00 | 0.00 | 97 | 1017.1 |
| 20260906072955 | 60 | 178 | 0.0 | 0.0 | 0.00 | 0.00 | 0.00 | 98 | 1017.0 |
| 20260906065958 | 60 | 178 | 0.0 | 0.0 | 0.00 | 0.00 | 0.00 | 97 | 1017.0 |
| 20260906064455 | 60 | 178 | 0.0 | 0.0 | 0.00 | 0.00 | 0.00 | 98 | 1016.9 |
| 20260906062954 | 61 | 178 | 0.0 | 0.0 | 0.00 | 0.00 | 0.00 | 98 | 1017.1 |
| 20260906061455 | 61 | 178 | 0.0 | 0.0 | 0.00 | 0.00 | 0.00 | 97 | 1017.0 |
| 20260906055957 | 61 | 178 | 0.0 | 0.0 | 0.00 | 0.00 | 0.00 | 98 | 1017.0 |
| 20260906054455 | 61 | 178 | 0.0 | 0.0 | 0.00 | 0.00 | 0.00 | 98 | 1017.1 |
| 20260906052955 | 60 | 178 | 0.0 | 0.0 | 0.00 | 0.00 | 0.00 | 97 | 1017.2 |
| 20260906051454 | 61 | 178 | 0.0 | 0.0 | 0.00 | 0.00 | 0.00 | 97 | 1017.0 |
| 20260906045958 | 61 | 178 | 0.0 | 0.0 | 0.00 | 0.00 | 0.00 | 97 | 1017.2 |
| 20260906044455 | 60 | 178 | 0.0 | 0.0 | 0.00 | 0.00 | 0.00 | 97 | 1017.1 |
| 20260906042956 | 60 | 178 | 0.0 | 0.0 | 0.00 | 0.00 | 0.00 | 97 | 1016.9 |
| 20260906041455 | 60 | 178 | 0.0 | 1.0 | 0.00 | 0.00 | 0.00 | 97 | 1016.9 |
| 20260906040003 | 60 | 178 | 0.0 | 0.0 | 0.00 | 0.00 | 0.00 | 96 | 1016.7 |
| 20260906034458 | 60 | 178 | 0.0 | 0.0 | 0.00 | 0.00 | 0.00 | 96 | 1016.9 |
| 20260906032958 | 61 | 178 | 0.0 | 0.0 | 0.00 | 0.00 | 0.00 | 96 | 1016.8 |
| 20260906031458 | 61 | 178 | 0.0 | 0.0 | 0.00 | 0.00 | 0.00 | 95 | 1016.8 |
| 20260906030001 | 62 | 178 | 0.0 | 0.0 | 0.00 | 0.00 | 0.00 | 95 | 1016.7 |
| 20260906024458 | 62 | 178 | 0.0 | 0.0 | 0.00 | 0.00 | 0.00 | 94 | 1016.7 |
| 20260906022958 | 63 | 178 | 0.0 | 0.0 | 0.00 | 0.00 | 0.00 | 94 | 1016.7 |
| 20260906020000 | 64 | 178 | 0.0 | 0.0 | 0.00 | 0.00 | 0.00 | 93 | 1016.5 |
| 20260906014457 | 64 | 178 | 0.0 | 0.0 | 0.00 | 0.00 | 0.00 | 93 | 1016.4 |
| 20260906012959 | 65 | 178 | 0.0 | 0.0 | 0.00 | 0.00 | 0.00 | 93 | 1016.3 |
| 20260906010000 | 65 | 178 | 0.0 | 0.0 | 0.00 | 0.00 | 0.00 | 92 | 1016.2 |
| 20260906004458 | 65 | 178 | 0.0 | 0.0 | 0.00 | 0.00 | 0.00 | 91 | 1016.3 |
| 20260906002957 | 65 | 178 | 0.0 | 0.0 | 0.00 | 0.00 | 0.00 | 91 | 1016.1 |
| 20260906001457 | 66 | 178 | 0.0 | 0.0 | 0.00 | 0.00 | 0.00 | 89 | 1015.9 |
| 20260906000001 | 66 | 178 | 0.0 | 1.0 | 0.00 | 0.00 | 0.00 | 87 | 1016.0 |
| 20260905234458 | 68 | 178 | 0.0 | 0.0 | 0.00 | 0.00 | 0.00 | 85 | 1016.2 |
| 20260905231457 | 70 | 178 | 0.0 | 2.0 | 0.00 | 0.00 | 0.00 | 79 | 1016.2 |
| 20260905230002 | 71 | 146 | 0.0 | 2.0 | 0.00 | 0.00 | 0.00 | 78 | 1016.2 |
| 20260905224457 | 72 | 67 | 1.0 | 3.0 | 0.00 | 0.00 | 0.00 | 74 | 1016.0 |
| 20260905222957 | 74 | 295 | 1.0 | 2.0 | 0.00 | 0.00 | 0.00 | 72 | 1016.1 |
| 20260905221459 | 74 | 355 | 1.0 | 3.0 | 0.00 | 0.00 | 0.00 | 71 | 1016.0 |
| 20260905220001 | 74 | 280 | 2.0 | 3.0 | 0.00 | 0.00 | 0.00 | 70 | 1016.0 |
| 20260905214457 | 74 | 17 | 1.0 | 3.0 | 0.00 | 0.00 | 0.00 | 70 | 1015.9 |
| 20260905212957 | 75 | 316 | 2.0 | 4.0 | 0.00 | 0.00 | 0.00 | 69 | 1015.8 |
| 20260905211457 | 75 | 63 | 1.0 | 5.0 | 0.00 | 0.00 | 0.00 | 65 | 1015.6 |